PHASE 3B (AO-10)

Last updated on Thu Nov 21 2024 00:03:02 GMT+0000 (Coordinated Universal Time)

1 14129U 83058B 24325.29260054 .00000183 00000+0 00000+0 0 9995 2 14129 27.3026 314.5254 6039337 318.4807 8.5876 2.05867237283675
UTC large
Height (km)
Speed (km/s)
/
Latitude / Longitude
Inclination (degrees)
Orbital Period (minutes)
Azimuth
Elevation
Range (km)
Doppler Factor

Next 0 passes for location: London (51.5072 / 0.1276)

Sorry there are no passes over London.